Regional Weather Roundup
Issued by NWS Wakefield, VA

Home | Current Version | Previous Version | Graphics & Text | Print | Product List | Glossary On
Versions: 1 2 3 4 5 6 7 8 9 10 11 12 13 14 15 16 17 18 19 20 21 22 23 24 25 26 27 28 29 30 31 32 33 34 35 36 37 38 39 40 41 42 43 44 45 46 47 48 49 50
000
ASUS41 KAKQ 200310
RWRAKQ

REGIONAL WEATHER ROUNDUP
NATIONAL WEATHER SERVICE WAKEFIELD VA
1100 PM EDT TUE AUG 19 2014

Note: "fair" indicates few or no clouds below 12,000 feet with no
significant weather and/or obstructions to visibility. * = Denotes
station may not report precipitation (e.g., rain,snow,etc.),
thunder or fog.

VAZ042-051-052>054-056-200400-
NORTHERN VIRGINIA

CITY           SKY/WX    TMP DP  RH WIND       PRES   REMARKS
WASH NATIONAL  MOCLDY    79  67  66 SE6       29.91R
DULLES         MOCLDY    74  65  73 SE5       29.91R
FORT BELVOIR   CLOUDY    73  68  83 E2        29.91R
QUANTICO       PTCLDY    76  71  85 S8        29.91S
FREDERICKSBRG* PTCLDY    72  72 100 CALM      29.90S
STAFFORD*      PTCLDY    69  69 100 CALM      29.95S FOG
WARRENTON      PTCLDY    71  71 100 CALM      29.90F FOG
CULPEPER*      MOCLDY   N/A N/A N/A CALM      29.92S
MANASSAS*      MOCLDY    72  72 100 CALM      29.91R
LEESBURG*      PTCLDY    75  70  83 CALM      29.93R
WINCHESTER     MOCLDY    73  68  83 S3        29.93R
$$

VAZ048-049-060>072-079>083-200400-
CENTRAL AND SOUTH CENTRAL VIRGINIA...AND NORTH CENTRAL NORTH CAROLINA

CITY           SKY/WX    TMP DP  RH WIND       PRES   REMARKS
RICHMOND       MOCLDY    75  71  87 E5        29.91S
CHESTERFIELD*  PTCLDY    73  63  68 E5        29.93S
HANOVER        MOCLDY    73  72  96 CALM      29.93S
TAPPAHANNOCK*  PTCLDY    73  70  91 CALM      29.93S
CHARLOTTSVILLE PTCLDY    72  69  90 CALM      29.93R
ORANGE*        CLOUDY    72  70  94 CALM      29.94R
LOUISA*        MOCLDY    70  70 100 CALM      29.91S FOG
FARMVILLE*     PTCLDY    72  72 100 CALM      29.90S
SOUTH HILL*    PTCLDY    75  75 100 CALM      29.96R
ROANOKE RAPIDS CLEAR     72  70  94 NE5       29.89S
RALEIGH        PTCLDY    75  71  87 VRB5      29.89S
$$

VAZ088>098-200400-
SOUTHEAST VIRGINIA

CITY           SKY/WX    TMP DP  RH WIND       PRES   REMARKS
NORFOLK        CLOUDY    77  71  82 NE7       29.88R
VIRGINIA BEACH MOCLDY    76  71  85 NE8       29.87R
NORFOLK NAVAL  MOCLDY    77  71  82 NE9       29.90R
WEST POINT*    CLOUDY    73  71  91 CALM      29.93R
NEWPORT NEWS   CLOUDY    78  71  79 NE5       29.90R
LANGLEY AFB    CLOUDY    76  74  95 E12       29.89R
FORT EUSTIS    CLOUDY    75  75 100 NE5       29.88S
WILLIAMSBURG*  CLEAR     73  73 100 NE3       29.91S
FRANKLIN*      PTCLDY    73  72  94 CALM      29.89S
WAKEFIELD      CLOUDY    74  71  91 CALM      29.90S
$$

VAZ020-022-025-037-045-200400-
WESTERN AND SOUTHWEST VIRGINIA

CITY           SKY/WX    TMP DP  RH WIND       PRES   REMARKS
STAUNTON*      CLEAR     70  67  91 CALM      29.96S FOG
HOT SPRINGS VA NOT AVBL
LYNCHBURG      CLOUDY    72  70  93 CALM      29.95R
DANVILLE       CLEAR     72  69  90 CALM      29.90F FOG
MARTINSVILLE   MOCLDY    72  71  99 CALM      29.95S FOG
ROANOKE        MOCLDY    69  66  90 CALM      29.97R
BLACKSBURG     CLOUDY    70  70 100 CALM      30.02S
DUBLIN*        CLEAR     67  67 100 CALM      30.01R FOG
MARION*        PTCLDY    68  66  96 CALM      30.04S FOG
HILLSVILLE*    CLOUDY    69  66  89 CALM      30.02R
RICHLANDS*     MOCLDY    72  69  90 SE5       30.02R
WISE*          CLEAR     68  68 100 SW3       30.03S FOG
ABINGDON*      CLEAR     70  70 100 CALM      30.00R FOG
$$

MDZ021>025-VAZ099-100-200400-
SOUTHERN MARYLAND AND THE DELMARVA PENINSULA

CITY           SKY/WX    TMP DP  RH WIND       PRES   REMARKS
PATUXENT RIVER PTCLDY    74  62  66 SE8       29.91S
BAY BRIDGE APT   N/A     72  63  73 SE5       29.92S
LEONARDTOWN    CLEAR     72  61  68 E3        29.93S
DOVER          MOCLDY    71  65  83 SE2       29.91R
GEORGETOWN     PTCLDY    68  64  87 CALM      29.92S
EASTON         PTCLDY    72  65  78 CALM      29.96
CAMBRIDGE      PTCLDY    70  63  78 CALM      29.92R
SALISBURY      PTCLDY    69  63  81 CALM      29.92R
OCEAN CITY     PTCLDY    74  65  73 E9        29.91R
WALLOPS ISLAND CLEAR     74  66  76 E9        29.91R
ACCOMACK*      CLEAR     68  64  88 E3        29.90S FOG
$$

NCZ012>017-030>032-200400-
EASTERN NORTH CAROLINA

CITY           SKY/WX    TMP DP  RH WIND       PRES   REMARKS
ELIZABETH CITY CLOUDY    76  73  91 N7        29.87S
AHOSKIE*       CLEAR     72  70  95 CALM      29.89S
EDENTON*       PTCLDY    74  73  96 N3        29.87S
CURRITUCK*     MOCLDY    77  71  82 NE3       29.88S
KILL DEVIL HLS MOCLDY    76  73  88 CALM      29.85F FOG
MANTEO         PTCLDY    75  73  94 E3        29.86F
CAPE HATTERAS  MOCLDY    79  76  90 NE3       29.87R
GOLDSBORO      CLEAR     77  77  98 W3        29.86S
WASHINGTON     PTCLDY    74  73  94 CALM      29.87S
GREENVILLE     CLEAR     73  73 100 NE5       29.90R
NEW BERN       MOCLDY    78  75  90 W5        29.88R
WILMINGTON     MOCLDY    76  74  93 CALM      29.86F
$$

VAZ048-200400-
ELSEWHERE

CITY           SKY/WX    TMP DP  RH WIND       PRES   REMARKS
HARRISBURG PA  CLOUDY    74  67  78 SE3       29.90S
BALTIMORE      MOCLDY    73  64  73 SE3       29.91R
ANNAPOLIS      PTCLDY    76  65  68 SE13      29.91R
ANDREWS AFB    CLOUDY    71  68  90 SE5       29.91S
WILMINGTON DE  MOCLDY    74  65  73 SE10      29.93R
PHILADELPHIA   CLOUDY    74  63  68 SE6       29.93R
WILDWOOD NJ*   MOCLDY    72  63  73 E5        29.93S
ATLANTIC CITY  PTCLDY    66  63  90 CALM      29.93R
HENDERSON NC   MOCLDY    73  71  93 CALM      29.91R FOG
GREENSBORO     MOCLDY    76  71  85 CALM      29.92R
ROCKY MOUNT    CLEAR     75  72  90 CALM      29.88S
FAYETTEVILLE   PTCLDY    76  73  91 CALM      29.88R
CHARLOTTE      PTCLDY    74  70  87 CALM      29.92R
$$

VAZ100-200400-
MARINE

STATION/POSITION TIME  TEMP    WIND        PRES    WAVE   SWELL
                       AIR SEA DIR/SP/G            HT/PER HT/PER
                 (UTC) (F)     (DEG/KT/KT) (MB)    (FT/S) (FT/S)
44066 TX TWR #4  0300   73 75   80/ 10/ 12 1013.0F   2/10   2/10
CAPE MAY NJ      0300   73 79   90/  4/  7 1012.7R
LEWES DE         0300   73 75  120/  6/  7 1012.7S
15NM E FENWICK I 0300   75 75              1012.7R   4/ 6
OCEAN-CITY-INLET 0300   75 75   80/  7/ 11 1012.5R
WACHAPREAGUE VA  0300   76 79   60/  7/ 11 1012.5R
THOMAS POINT MD  0300   75 78  140/ 10/ 11 1013.4R
GOOSES REEF MD   0300   76     140/ 10/ 12 1013.3R
COVE POINT MD    0300   75     150/ 10/ 12 1012.8R
SOLOMONS ISLAND  0300      79                N/A
BISHOPS HEAD MD  0300   74 78   80/  8/ 10 1012.5R
PINEY POINT MD   0300          110/  8/  8   N/A
POTOMAC MD       0300   76     100/ 10/ 14 1012.1S
CAMBRIDGE MD     0300   72 79  150/  1/  3 1012.8R
LEWISETTA VA     0300   76 79  100/ 11/ 13 1012.5R
RAPPAHANNOCK LGT 0300           50/ 10/ 11 1012.9R
STINGRAY PT      0300   76      70/ 12/ 14 1013.3S
YORK RVR RNG VA  0300   76      60/ 13/ 15 1011.8R
YORKTOWN VA      0300   76 80   40/  9/ 11 1012.2R
JAMESTOWN VA     0300   74      60/  4/  6   N/A
DOMINION TERM VA 0300   77      60/  7/ 11 1012.1F
KIPTOPEKE VA     0300      82   70/  5/  9   N/A
CHES BAY BRIDGE  0300   77 78   40/ 11/ 13 1011.4R
CAPE HENRY VA    0300   77      60/ 12/ 15 1010.6R
CHESAPEAKE LGHT  0200   77      80/ 18/ 20 1011.6R
WILLOUBY STN VA  0300   77      60/ 11/ 12 1010.9S
S CRANEY ISL VA  0300           40/  9/ 11 1011.7R
CAPE HENRY BUOY  0300      77                N/A     4/ 5
1ST LANDING BUOY 0300   77      60/ 10/ 12 1011.5S
CAPE CHARLES BUO 0300      76                N/A     3/ 6   2/10
OFFSHORE WE BUOY 0300      77                N/A     4/ 5   2/ 9
64NM E OF VA BCH 0300   78 78   70/ 10/ 12 1010.3S   3/ 7   2/ 7
DUCK PIER NC     0300   77 79   70/  6/  7 1010.3F
44056 DUCK FRF   0300                        N/A     2/11
OREGON INLET NC  0300   78 81   40/  5/  6 1010.9F
HATTERAS NC      0300   80 82  260/  3/  5 1011.7R
DIAMOND SHLS NC  0300   80     230/ 12/ 12 1010.9F   3/ 7   2/ 7
CAPE LOOKOUT NC  0300   80     280/ 11/ 13 1011.0S
$$


USA.gov is the U.S. government's official web portal to all federal, state and local government web resources and services.